NOAA 16 DEB, 41499

Orbit data source: Space-Track

NOAA 16 DEB, 41499 is space debris in SSO originally from a launch on Thu, 21 Sep 2000 UTC launched from the Air Force Western Test Range (AFWTR). Debris objects in space refer to the collection of defunct objects orbiting the Earth. Examples of debris include non-operational satellites, rocket bodies, and fragments generated from explosions, collisions, or faulty payload assembly.

Loading next visibility...
Identifier
41499, 2000-055LX
Orbit
SSO
Country
Flag of USUS
Related business
Manufacturer
Unknown
Mission
Spacecraft
Bus & Motor
Unknown
Mass
Unknown
Launch date (UTC)
2000-09-21 (25 years ago)
Launch vehicle
Unknown
Launch site
Air Force Western Test Range (AFWTR)
Object type
Payload
Rocket body
Debris
Shape & HBR
Unknown shape, 0.1 m
Radar Cross Section
Small (<0.1 m²)

Expand to show TLE details & history
Last TLE update: 2 days ago

TLE from 2 days ago
0 NOAA 16 DEB
1 41499U 00055LX  25291.97250124  .00019374  00000-0  59575-2 0  9993
2 41499  98.6950  13.7438 0028992 243.0616 116.7610 14.41309575498208
Epoch: 2025-10-18T23:20Z
TLE epoch observation values (Epoch: 2025-10-18T23:20:24.107Z)
Latitude
0.00001°
Longitude
-4.0525°
Altitude
766.479 km
Speed
7.466 km/s
True Right ascension
00h 54m 58s
True Declination
0° 00' 00"
Sunlit
Object was in full shadow at epoch
Visualization orbit readout
Latitude
Unknown
Longitude
Unknown
Altitude
Unknown
Speed
Unknown
Apparent Right ascension
Unknown
Apparent Declination
Unknown
Sunlit
N/A
Visualization observer readout
Local Sidereal Time
16:14:43
Azimuth
Unknown
Elevation
Unknown
Doppler factor
Unknown
Orbital elements
Apogee altitude
771.974 km
Perigee altitude
730.635 km
Semi-major axis
7,129.441 km
Eccentricity
0.0029
Inclination
98.695°
RAAN
13.7438°
Arg. of periapsis
243.0616°
True anomaly
117.05716°
Mean anomaly
116.761°
Eccentric anomaly
116.90913°
Mean motion
3.60545 °/min
Orbital period
99.85 mins
BSTAR
0.0059575
Loading maneuver chart data...
Computing Atmospheric mass density...
Loading historical data...
Loading historical data...
Loading historical data...
Loading historical data...
Loading historical data...
Loading historical data...
Loading historical data...

Documentation

Showing up to 5 results
|